Location: Marcé
(47.5801°N, 0.3280°W)
Time: 16:15:56
(UTC+01:00)

SR - Pass Details

Date: 04 December 2021
Orbit: 582 x 872 km, 66.7° (Epoch: 22 January)

Event Time Altitude Azimuth Distance (km) Brightness Sun altitude
Rises 23:46:04 0° 192° (SSW) 2,990 - -61.5°
Reaches altitude 10° 23:48:32 10° 184° (S) 2,038 - -61.8°
Maximum altitude 23:52:46 39° 117° (ESE) 937 - -62.1°
Drops below altitude 10° 23:56:48 10° 48° (NE) 1,941 - -62.5°
Sets 23:59:06 0° 41° (NE) 2,828 - -62.7°
